Skip Page Navigation
NASA JPL Caltech
NASA Logo - Jet Propulsion Laboratory + View the NASA Portal
+ Center for Near-Earth Object Studies
JPL Home Earth Solar System Stars & Galaxies Technology
JPL Solar System Dynamics
BODIES ORBITS EPHEMERIDES TOOLS PHYSICAL DATA DISCOVERY FAQ SITE MAP
JPL Small-Body Database Browser
Search: [ help ]  
29075 (1950 DA)
Classification: Apollo [NEO, PHA]          SPK-ID: 2029075
Ephemeris | Orbit Diagram | Orbital Elements | Mission Design | Physical Parameters | Discovery Circumstances | Close-Approach Data ]

[ hide orbit diagram ]

For accurate long-term ephemerides, please instead use our Horizons system.This orbit viewer was implemented using two-body methods, and hence should not be used for determining accurate long-term trajectories (over several years or decades) or planetary encounter circumstances.


Orbital Elements at Epoch 2459200.5 (2020-Dec-17.0) TDB
Reference: JPL 188 (heliocentric ecliptic J2000)
 Element Value Uncertainty (1-sigma)   Units 
e .5077360606964316 2.6547e-08  
a 1.698665726802664 1.1458e-09 au
q .8361918822358386 4.55e-08 au
i 12.16734013772536 4.3464e-06 deg
node 356.6558403536075 7.2668e-06 deg
peri 224.6831644667536 8.4721e-06 deg
M 319.9225275287117 2.5847e-06 deg
tp 2459290.523965007406
(2021-Mar-17.02396501)
5.8853e-06 TDB
period 808.6494832198781
2.21
8.1821e-07
2.24e-09
d
yr
n .4451867063174926 4.5045e-10 deg/d
Q 2.56113957136949 1.7276e-09 au

Additional Model Parameters
 Parameter Value Uncertainty (1-sigma) 
A2 [EST] -6.655655924318635E-15 1.269E-15
ALN [SET] 1. n/a
NK [SET] 0. n/a
NM [SET] 2. n/a
R0 [SET] 1. n/a
  Orbit Determination Parameters
   # obs. used (total)      762  
   # delay obs. used      8  
   # Doppler obs. used      4  
   data-arc span      25921 days (70.97 yr)  
   first obs. used      1950-02-23  
   last obs. used      2021-02-11  
   planetary ephem.      DE441  
   SB-pert. ephem.      SB441-N16  
   condition code      0  
   norm. resid. RMS      .4869  
   source      ORB  
   producer      Otto Matic  
   solution date      2021-Apr-18 06:25:48  

Additional Information
 Earth MOID = .0401265 au 
 Jupiter MOID = 2.48251 au 
 T_jup = 4.026 
[ show covariance matrix ]

Ephemeris | Orbit Diagram | Orbital Elements | Mission Design | Physical Parameters | Discovery Circumstances | Close-Approach Data ]

Physical Parameter Table
Parameter Symbol Value Units Sigma Reference Notes
absolute magnitude H 17.1   n/a MPO244437  
diameter diameter 2.000 km 0.200 urn:nasa:pds:neowise_diameters_albedos::2.0[neos] (http://adsabs.harvard.edu/abs/2011ApJ...743..156M)  
rotation period rot_per 2.1216 h n/a LCDB (Rev. 2020-October); Warner et al., 2009 Published Reference List:
[Pravec, P.; Wolf, M.; Sarounova, L. (2001) http://www.asu.cas.cz/~ppravec/neo.htm]
[Busch, M.W.; Giorgini, J.D.; Ostro, S.J.; Benner, L.A.M.; et al. (2007) Icarus 190, 608-621.]
geometric albedo albedo 0.070   0.020 urn:nasa:pds:neowise_diameters_albedos::2.0[neos] (http://adsabs.harvard.edu/abs/2011ApJ...743..156M)  

29075 (1950 DA)          Discovered 1950-Feb-22 by Wirtanen, C. A. at Mt. Hamilton
Reference: 20011002/Numbers.arcLast Updated: 2004-04-19

[ show close-approach data ]
Alternate Designations
 1950 DA = 2000 YK66 
Ephemeris | Orbit Diagram | Orbital Elements | Mission Design | Physical Parameters | Discovery Circumstances | Close-Approach Data ]
ABOUT SSD CREDITS/AWARDS PRIVACY/COPYRIGHT GLOSSARY LINKS
FirstGov 2021-Apr-19 08:19 UT
(server date/time)  
NASA Home Page
Site Manager:   Ryan S. Park
Webmaster  Alan B. Chamberlin